TimePDT,TemperatureF,Dew PointF,Humidity,Sea Level PressureIn,VisibilityMPH,Wind Direction,Wind SpeedMPH,Gust SpeedMPH,PrecipitationIn,Events,Conditions,WindDirDegrees,DateUTC
12:00 AM,53.6,53.6,100,29.75,10.0,SSE,3.5,-,N/A,,Overcast,160,2013-06-25 07:00:00
12:31 AM,53.6,53.6,100,29.76,10.0,SSE,4.6,-,0.00,,Overcast,150,2013-06-25 07:31:00
12:40 AM,53.6,53.6,100,29.76,9.0,SSE,4.6,-,0.00,,Overcast,160,2013-06-25 07:40:00
12:47 AM,53.6,53.6,100,29.76,1.8,South,3.5,-,0.00,,Overcast,170,2013-06-25 07:47:00
12:53 AM,54.0,54.0,100,29.75,1.2,SSE,3.5,-,0.00,,Overcast,160,2013-06-25 07:53:00
1:01 AM,53.6,53.6,100,29.76,3.0,SSE,5.8,-,N/A,,Overcast,160,2013-06-25 08:01:00
1:16 AM,53.6,53.6,100,29.77,9.0,South,4.6,-,N/A,,Overcast,170,2013-06-25 08:16:00
1:53 AM,54.0,52.0,93,29.76,10.0,SSW,4.6,-,N/A,,Mostly Cloudy,200,2013-06-25 08:53:00
2:03 AM,53.6,51.8,94,29.77,10.0,South,3.5,-,N/A,,Mostly Cloudy,180,2013-06-25 09:03:00
2:20 AM,53.6,51.8,94,29.77,10.0,Calm,Calm,-,N/A,,Overcast,0,2013-06-25 09:20:00
2:29 AM,53.6,51.8,94,29.78,10.0,Calm,Calm,-,N/A,,Overcast,0,2013-06-25 09:29:00
2:53 AM,52.0,51.1,97,29.77,10.0,SSE,5.8,-,N/A,,Mostly Cloudy,160,2013-06-25 09:53:00
3:07 AM,51.8,50.0,94,29.78,10.0,SSE,3.5,-,N/A,,Scattered Clouds,160,2013-06-25 10:07:00
3:53 AM,50.0,48.9,96,29.79,10.0,South,6.9,-,N/A,,Mostly Cloudy,190,2013-06-25 10:53:00
4:53 AM,48.0,46.0,93,29.80,9.0,Calm,Calm,-,0.01,,Mostly Cloudy,0,2013-06-25 11:53:00
5:53 AM,50.0,48.9,96,29.81,10.0,Calm,Calm,-,N/A,,Overcast,0,2013-06-25 12:53:00
6:53 AM,54.0,51.1,90,29.81,10.0,Calm,Calm,-,N/A,,Clear,0,2013-06-25 13:53:00
7:17 AM,55.4,51.8,88,29.81,10.0,Calm,Calm,-,N/A,,Scattered Clouds,0,2013-06-25 14:17:00
7:53 AM,55.9,51.1,84,29.81,10.0,Calm,Calm,-,N/A,,Overcast,0,2013-06-25 14:53:00
8:53 AM,57.9,51.1,78,29.81,10.0,Calm,Calm,-,N/A,,Partly Cloudy,0,2013-06-25 15:53:00
9:53 AM,61.0,52.0,72,29.81,10.0,Calm,Calm,-,N/A,,Overcast,0,2013-06-25 16:53:00
10:53 AM,63.0,51.1,65,29.80,10.0,South,8.1,-,N/A,,Overcast,180,2013-06-25 17:53:00
11:04 AM,62.6,51.8,68,29.81,10.0,South,5.8,-,N/A,,Overcast,180,2013-06-25 18:04:00
11:53 AM,63.0,50.0,63,29.80,10.0,Calm,Calm,-,N/A,,Overcast,0,2013-06-25 18:53:00
12:17 PM,60.8,51.8,72,29.81,1.8,Calm,Calm,-,0.05,Rain,Heavy Rain,0,2013-06-25 19:17:00
12:36 PM,57.2,53.6,88,29.83,3.0,Calm,Calm,-,0.18,Rain,Rain,0,2013-06-25 19:36:00
12:53 PM,57.0,55.0,93,29.83,3.0,SSW,12.7,-,0.22,Rain,Rain,200,2013-06-25 19:53:00
1:53 PM,60.1,55.0,83,29.82,10.0,Variable,3.5,-,0.01,,Mostly Cloudy,0,2013-06-25 20:53:00
2:04 PM,60.8,55.4,82,29.83,10.0,WNW,6.9,-,N/A,,Mostly Cloudy,290,2013-06-25 21:04:00
2:25 PM,60.8,53.6,77,29.83,10.0,WNW,3.5,-,N/A,,Overcast,290,2013-06-25 21:25:00
2:53 PM,61.0,53.1,75,29.82,10.0,Calm,Calm,-,N/A,,Overcast,0,2013-06-25 21:53:00
3:27 PM,60.8,55.4,82,29.83,10.0,East,5.8,-,N/A,,Overcast,100,2013-06-25 22:27:00
3:53 PM,63.0,54.0,72,29.82,10.0,Calm,Calm,-,N/A,,Mostly Cloudy,0,2013-06-25 22:53:00
4:53 PM,64.0,53.1,67,29.82,10.0,SSW,8.1,-,N/A,,Overcast,200,2013-06-25 23:53:00
5:53 PM,64.0,53.1,67,29.81,10.0,South,3.5,-,N/A,,Mostly Cloudy,190,2013-06-26 00:53:00
6:53 PM,63.0,55.0,75,29.82,10.0,SE,3.5,-,N/A,,Overcast,140,2013-06-26 01:53:00
7:53 PM,63.0,55.0,75,29.83,10.0,SSE,5.8,-,N/A,,Overcast,150,2013-06-26 02:53:00
8:53 PM,60.1,53.1,78,29.84,10.0,SSE,5.8,-,N/A,,Overcast,160,2013-06-26 03:53:00
9:53 PM,59.0,54.0,83,29.86,10.0,SSE,4.6,-,N/A,,Overcast,150,2013-06-26 04:53:00
10:53 PM,57.9,53.1,84,29.87,10.0,Calm,Calm,-,N/A,,Mostly Cloudy,0,2013-06-26 05:53:00
11:53 PM,55.9,54.0,93,29.88,10.0,Calm,Calm,-,N/A,,Overcast,0,2013-06-26 06:53:00